Other Public Products
Issued by NWS Grand Forks, ND

Home | Current Version | Previous Version | Text Only | Print | Product List | Glossary On
Versions: 1 2 3 4 5 6 7 8 9 10 11 12 13 14 15 16 17 18 19 20 21 22 23 24 25 26 27 28 29 30 31 32 33 34 35 36 37 38 39 40 41 42 43 44 45 46 47 48 49 50
000
FPUS83 KFGF 271410
OPUFGF
PRAIRIE TO PINES WEATHER ROUNDUP
NATIONAL WEATHER SERVICE EASTERN NORTH DAKOTA/GRAND FORKS ND
900 AM CDT WED MAY 27 2015

 **SATELLITE DATA USED TO AUGMENT SKY COVER AT AUTOMATED STATIONS**
 *****  WEATHER ACROSS EASTERN NORTH DAKOTA  *****

CITY           SKY/WX    TMP DP  RH WIND       PRES   REMARKS
GRAND FORKS    MOSUNNY   58  46  64 N14       29.94R
GRAND FORKS AF SUNNY     58  46  63 N10       29.95R
GRAND CITY NWS   N/A     57 N/A N/A N10         N/A
BUXTON         NOT AVBL
DEVILS LAKE    SUNNY     57  46  67 N8        29.96R
FARGO          SUNNY     64  53  67 N14       29.92R
WAHPETON ARPT  SUNNY     63  50  63 NW8       29.94R
$$

 *****  WEATHER ACROSS CENTRAL AND WESTERN NORTH DAKOTA  *****

CITY           SKY/WX    TMP DP  RH WIND       PRES   REMARKS
JAMESTOWN      SUNNY     66  53  63 NW8       29.94F
BISMARCK       SUNNY     65  51  60 CALM      29.96S
MINOT          MOSUNNY   64  48  56 S3        29.95S
MINOT AFB      SUNNY     68  55  63 CALM      29.95R
GARRISON         N/A     68  50  52 CALM      29.95R
WILLISTON      SUNNY     65  47  52 VRB3      29.93S
DICKINSON      PTSUNNY   63  50  62 S9        29.94F
HETTINGER      SUNNY     62  49  62 SE3       29.98S
$$

 *****  OTHER OBSERVATIONS NORTHEAST NORTH DAKOTA  *****

CITY           SKY/WX    TMP DP  RH WIND       PRES   REMARKS
WALHALLA         N/A     54  45  71 MISG      29.98R
LANGDON        FAIR      55  45  67 N10G17    29.98R
CAVALIER       FAIR      55  45  67 N16       29.97R
GRAFTON        FAIR      55  46  71 N13G20    29.96R
CANDO          FAIR      55  45  67 NE10      29.98R
FORT TOTTEN      N/A     60  48  64 E5        29.95S
ROLLA          FAIR      52  41  66 N13       30.00S
RUGBY          NOT AVBL
 ***** THE ABOVE OBSERVATIONS ARE NON NWS ARE NOT QUALITY
        CONTROLLED AND MAY MIS-REPORT RAIN FOR SNOW...
$$

 *****  OTHER OBSERVATIONS SOUTHEAST NORTH DAKOTA *****

CITY           SKY/WX    TMP DP  RH WIND       PRES   REMARKS
COOPERSTOWN    NOT AVBL
VALLEY CITY    FAIR      66  52  59 N6        29.95R
OAKES            N/A     64  55  72 NW7       29.96R
GWINNER        NOT AVBL
SHEYENNE NWR     N/A     66  53  63 NW5       29.95
BUFFALO        NOT AVBL
WYNDMERE         N/A     66  52  59 NW8         N/A
 ***** THE ABOVE OBSERVATIONS ARE NON NWS ARE NOT QUALITY
       CONTROLLED AND MAY MIS-REPORT RAIN FOR SNOW...
$$

  *****  WEATHER ACROSS NORTHERN MINNESOTA  *****

CITY           SKY/WX    TMP DP  RH WIND       PRES   REMARKS
FLAG ISLAND    SUNNY     55  46  71 NW13      29.88R
WARROAD        MOSUNNY   55  48  76 NW8       29.91R
ROSEAU         MOSUNNY   57  48  72 NW6       29.91R
HALLOCK        MOSUNNY   55  45  67 N14       29.94R
THF RVR FALLS  PTSUNNY   57  48  72 NW7       29.92R
HALSTAD        NOT AVBL
FOSSTON        MOSUNNY   63  50  63 NW8       29.92R
BAUDETTE       MOSUNNY   58  49  72 NW13      29.87R
WASKISH        MOSUNNY   63  54  72 CALM      29.87R
CROOKSTON      MOSUNNY   57  46  67 N13       29.94R
$$
  *****  WEATHER ACROSS CENTRAL AND WEST MINNESOTA  *****

CITY           SKY/WX    TMP DP  RH WIND       PRES   REMARKS
BEMIDJI        SUNNY     65  51  62 N6        29.89R
PARK RAPIDS    SUNNY     67  53  61 NW8       29.89R
WADENA         SUNNY     63  55  77 W6        29.90R
DETROIT LAKES  SUNNY     63  52  67 NW8       29.93R
MOORHEAD       SUNNY     63  54  72 N10       29.93R
FERGUS FALLS   SUNNY     61  54  77 NW9       29.93R
ELBOW LAKE     FAIR      61  54  77 NW7       29.92S
MORRIS MN      SUNNY     66  54  63 NW10      29.92R
STAPLES        SUNNY     63  55  77 W6        29.89S
WHEATON        SUNNY     64  52  63 NW12      29.95R
$$
  *****  WEATHER ELSEWHERE ACROSS MINNESOTA  *****

CITY           SKY/WX    TMP DP  RH WIND       PRES   REMARKS
DULUTH         MOSUNNY   68  52  56 NW8       29.84R
INTRNTL FALLS  SUNNY     64  52  64 NW9       29.84R
ELY            NOT AVBL
CLOQUET        PTSUNNY   64  54  68 W7        29.86R
BRAINERD       MOSUNNY   61  55  81 W5        29.89R
HIBBING        SUNNY     65  54  67 NW5       29.84R
ALEXANDRIA     MOSUNNY   63  53  70 NW6       29.93R
SAINT CLOUD    SUNNY     64  56  75 SW6       29.90R
MINNEAPOLIS    PTSUNNY   63  58  83 S7        29.92S
$$

  *****  WEATHER ACROSS SOUTH DAKOTA  *****

CITY           SKY/WX    TMP DP  RH WIND       PRES   REMARKS
SIOUX FALLS    SUNNY     69  54  58 NW6       30.00R
BROOKINGS      SUNNY     64  54  68 W6        29.99R
WATERTOWN      SUNNY     66  53  63 NW7       29.98R
HURON          SUNNY     65  52  62 CALM      29.99R
SISSETON         N/A     71  51  49 N16       29.93R
ABERDEEN       SUNNY     70  54  56 NW3       29.97R
MITCHELL       SUNNY     65  55  70 W3        30.01R
PIERRE         MOSUNNY   62  50  64 SW6       29.99S
MOBRIDGE       MOSUNNY   63  54  72 S5        29.96R
RAPID CITY     PTSUNNY   58  54  86 S12       30.00R
$$

  *****  SOME WEATHER IN NEARBY STATES *****

CITY           SKY/WX    TMP DP  RH WIND       PRES   REMARKS
GLASGOW MT     CLOUDY    58  53  84 NE9       29.92F
GREAT FALLS MT CLOUDY    51  48  89 SW10      30.03R
CHEYENNE WY    MOSUNNY   58  43  57 W12       30.10R
SCOTTSBLUFF NE MOSUNNY   58  53  84 E12       30.04R
OMAHA NE       SUNNY     65  55  70 NW5       30.05R
DES MOINES IA  MOSUNNY   66  57  72 NW8       30.02R
DAVENPORT IA   MOSUNNY   65  59  81 W13       29.99S
CHICAGO IL     PTSUNNY   67  58  72 W14G23    29.94S
EAU CLAIRE WI  MOSUNNY   60  56  86 SW7       29.92S
LA CROSSE WI   PTSUNNY   64  57  78 N6        29.95R
$$

  *****  SOME NATIONAL WEATHER *****

CITY           SKY/WX    TMP DP  RH WIND       PRES   REMARKS
LA GUARDIA NY  PTSUNNY   75  64  68 S8        30.17S
RALEIGH NC     PTSUNNY   76  70  82 SW9       30.27S
ATLANTA GA     PTSUNNY   73  66  78 CALM      30.26R
NEW ORLEANS LA CLOUDY    81  74  79 SE10      30.15R
OKLAHOMA CITY  MOSUNNY   68  62  81 S10       30.07R
ALBUQUERQUE NM PTSUNNY   59  44  57 N7        30.17R
SALT LAKE CITY PTSUNNY   56  47  71 SE8       30.07R
LOS ANGELES CA CLOUDY    59  54  83 W8        30.00R
BOISE ID       MOSUNNY   57  51  80 NE5       30.00R
SEATTLE WA     PTSUNNY   56  52  86 SW3       30.07R
$$

*** WEATHER ACROSS MANITOBA...SASKATCHEWAN AND ONTARIO ***
                ***ONTARIO***

CITY           SKY/WX    TMP DP  RH WIND       PRES   REMARKS
GERALDTON      CLOUDY    61  54  77 NW10      29.73R
THUNDER BAY    PTSUNNY   72  55  56 W12       29.73R
SIOUX LOOKOUT  MOSUNNY   55  45  67 N8        29.85R
TORONTO        PTSUNNY   75  63  64 SW18      29.98R
BIG TROUT LK   CLOUDY    30  27  86 N7        30.03R WCI  23
PICKLE LAKE    CLOUDY    39  34  81 N10       29.91R
DRYDEN         SUNNY     57  46  67 NW9       29.86R
KENORA         MOSUNNY   57  46  67 N8        29.89R
$$
                *** MANITOBA***

CITY           SKY/WX    TMP DP  RH WIND       PRES   REMARKS
BRANDON        CLOUDY    48  41  76 E13       30.03S
DAUPHIN        SUNNY     48  39  71 NE12      30.08S
ISLAND LAKE    MOSUNNY   41  27  56 N6        30.10R
PILOT MOUND      N/A     48  43  81 N12         N/A
THE PAS        MOSUNNY   48  32  53 S9        30.13R
THOMPSON       MOSUNNY   46  25  42 W6        30.11S
WINNIPEG       MOSUNNY   52  43  71 N14       29.99R
LYNN LAKE      SUNNY     45  27  49 E6        30.11S
CHURCHILL      CLOUDY    30  23  74 N16G24    30.12R WCI  19
GILLAM         PTSUNNY   37  28  70 N10       30.10R
$$
                ***SASKATCHEWAN***

CITY           SKY/WX    TMP DP  RH WIND       PRES   REMARKS
ESTEVAN        PTSUNNY   55  46  71 E15G21    29.97R
KINDERSLEY     NOT AVBL
LLOYDMINSTER   MOSUNNY   54  41  62 SE9       30.03R
PRINCE ALBERT  PTSUNNY   50  39  66 SE7       30.09S
REGINA         MOSUNNY   55  46  71 E14       29.99S



USA.gov is the U.S. government's official web portal to all federal, state and local government web resources and services.